Flag for Belarus Weather past 2 weeks in Minsk, Belarus

Now
37 °F

Sunny.


Feels Like: 35 °F
Forecast: 38 / 57 °F
Wind: 3 mph from Northwest

Location: Loshitsa / Minsk International 1

Current Time: Apr 22, 2015 at 7:33:45 AM

Latest Report: Apr 22, 2015 at 7:00 AM


Visibility: 10 mi

Pressure: 30.07 "Hg

Humidity: 70%

Dew point: 28 °F

Location of MinskLocation

Historic Weather in Minsk — Graph

°F

Minsk temperature yesterday

Maximum temperature yesterday: 43 °F (at 4:00 PM)
Minimum temperature yesterday: 36 °F (at 2:00 PM)
Average temperature yesterday: 39 °F

Past Weeks' High & Low Weather Summary

 TemperatureHumidityPressure
High66 °F (Apr 11, 3:00 PM)100% (Apr 15, 7:00 AM)30.27 "Hg (Apr 15, 7:00 AM)
Low30 °F (Apr 7, 7:00 AM)26% (Apr 9, 4:00 PM)29.36 "Hg (Apr 16, 7:00 AM)
Average46 °F61%29.90 "Hg
* Reported Apr 6 8:00 PM — Apr 21 8:30 PM, Minsk, Weather by CustomWeather, © 2015

Note: Actual official high and low records may vary slightly from our data, if they occured in-between our weather recording intervals... More about our weather records

Advertising

Minsk weather history for previous 24 hours

 ConditionsComfort  
Time TempWeatherWind HumidityBarometerVisibility
8:30 PM
Tue, Apr 21
41 °FPartly sunny.3 mph76%29.98 "HgN/A
8:00 PM41 °FScattered clouds.6 mph76%29.98 "HgN/A
7:30 PM41 °FBroken clouds.6 mph70%29.98 "HgN/A
7:00 PM41 °FBroken clouds.10 mph70%29.95 "HgN/A
6:30 PM43 °FPartly sunny.8 mph61%29.95 "HgN/A
6:00 PM43 °FBroken clouds.8 mph61%29.95 "HgN/A
5:30 PM41 °FPartly sunny.10 mph70%29.95 "HgN/A
5:00 PM41 °FSprinkles. Partly sunny.13 mph70%29.92 "HgN/A
4:30 PM43 °FPartly sunny.8 mph61%29.92 "HgN/A
4:00 PM43 °FPartly sunny.13 mph61%29.92 "HgN/A
3:30 PM41 °FPartly sunny.8 mph81%29.92 "HgN/A
3:00 PM41 °FPartly sunny.10 mph81%29.92 "HgN/A
2:30 PM36 °FPartly sunny.8 mph93%29.92 "HgN/A
2:00 PM36 °FSnow flurries. Mostly cloudy.10 mph93%29.92 "Hg1 mi
1:45 PM39 °FRain showers. Mostly cloudy.10 mph81%29.89 "Hg1 mi
1:30 PM39 °FSprinkles. Mostly cloudy.10 mph81%29.89 "HgN/A
1:00 PM39 °FSprinkles. Mostly cloudy.10 mph81%29.89 "HgN/A
12:30 PM37 °FSprinkles. Mostly cloudy.10 mph81%29.89 "HgN/A
12:00 PM37 °FSprinkles. Mostly cloudy.10 mph81%29.89 "HgN/A
11:30 AM37 °FSprinkles. Mostly cloudy.10 mph75%29.89 "HgN/A
11:00 AM37 °FSprinkles. Mostly cloudy.10 mph75%29.89 "HgN/A
10:30 AM39 °FSprinkles. Mostly cloudy.10 mph65%29.89 "HgN/A
10:00 AM39 °FSunny.8 mph65%29.89 "Hg10 mi
9:30 AM39 °FSunny.10 mph65%29.89 "Hg10 mi
9:00 AM39 °FSunny.10 mph65%29.89 "Hg10 mi
8:30 AM37 °FSunny.10 mph75%29.89 "Hg10 mi
8:00 AM37 °FSunny.13 mph75%29.89 "Hg10 mi
7:30 AM37 °FMore clouds than sun.10 mph75%29.89 "HgN/A
7:00 AM37 °FMore clouds than sun.8 mph75%29.89 "HgN/A
Weather by CustomWeather, © 2015

See weather overviewHow to use our weather pages